This demonstration page uses our WeatherBlox Daily Observations layout. Learn more.

Left ArrowRight Arrow

47.50024, -111.30081

Hourly Observations for April 6, 2018

Temp ( °F °C ) Dew Point ( °F °C ) Humidity (%) Winds ( mph kmh ) Pressure ( in mb ) Visibility ( mi km ) Precip ( " mm )
12:18 am 00:18 Cloudy with Light Snow 14 -10 11 -11.7 88 88 NNE 14 22 30.53 1034 1 2 0.01 0.25
12:45 am 00:45 Cloudy with Light Snow 13 -10.6 11 -11.7 92 92 NNE 15 24 30.53 1034 1 2 0.02 0.51
12:53 am 00:53 Cloudy with Light Snow 13 -10.6 11 -11.7 92 92 NNE 14 22 30.48 1032 1 2 0.02 0.51
1:21 am 01:21 Cloudy with Light Snow 13 -10.6 11 -11.7 92 92 NNE 12 19 30.53 1034 1 2 0.01 0.25
1:53 am 01:53 Cloudy with Light Snow 13 -10.6 11 -11.7 92 92 NNE 13 20 30.48 1032 1 2 0.02 0.51
2:53 am 02:53 Cloudy with Light Snow 13 -10.6 10 -12.2 88 88 NNE 14 22 30.48 1032 1 2 0.01 0.25
3:02 am 03:02 Cloudy with Light Snow 12 -11.1 9 -12.8 87 87 NE 16 26 30.56 1035 1 2 0.01 0.25
3:20 am 03:20 Mostly Cloudy with Light Snow 12 -11.1 9 -12.8 87 87 NE 15 24 30.56 1035 1 2 0.01 0.25
3:45 am 03:45 Mostly Cloudy with Light Snow 11 -11.7 8 -13.3 88 88 NE 16 26 30.56 1035 1 1 0.02 0.51
3:53 am 03:53 Mostly Cloudy with Light Snow 11 -11.7 8 -13.3 88 88 NE 16 26 30.49 1033 1 1 0.02 0.51
3:59 am 03:59 Cloudy with Light Snow 11 -11.7 7 -13.9 84 84 NE 15 24 30.56 1035 1 2 0.00 0.03
4:53 am 04:53 Cloudy with Light Snow 10 -12.2 7 -13.9 87 87 NE 14 22 30.49 1033 1 2 0.02 0.51
5:53 am 05:53 Cloudy with Light Snow 10 -12.2 6 -14.4 84 84 NE 14 22 30.48 1032 1 2 0.01 0.25
6:29 am 06:29 Cloudy with Light Snow 9 -12.8 6 -14.4 88 88 NE 12 19 30.59 1036 2 3 0.00 0.03
6:37 am 06:37 Cloudy with Light Snow 9 -12.8 6 -14.4 88 88 NE 12 19 30.59 1036 2 3 0.00 0.03
6:53 am 06:53 Cloudy with Light Snow 9 -12.8 6 -14.4 88 88 NE 14 22 30.48 1032 1 2 0.00 0.03
7:04 am 07:04 Cloudy with Light Snow 8 -13.3 5 -15 87 87 NE 13 20 30.59 1036 2 3 0.00 0.03
7:18 am 07:18 Cloudy with Light Snow 9 -12.8 6 -14.4 88 88 NE 13 20 30.56 1035 3 4 0.00 0.03
7:31 am 07:31 Cloudy with Light Snow 9 -12.8 6 -14.4 88 88 NE 13 20 30.59 1036 3 5 0.00 0.03
7:46 am 07:46 Cloudy with Light Snow 9 -12.8 6 -14.4 88 88 NE 13 20 30.56 1035 4 6 0.01 0.25
7:53 am 07:53 Cloudy with Light Snow 9 -12.8 6 -14.4 88 88 NE 10 17 30.48 1032 3 5 0.01 0.25
8:00 am 08:00 Cloudy with Light Snow 9 -12.8 6 -14.4 88 88 NE 10 17 30.56 1035 2 3 0.00 0.03
8:05 am 08:05 Cloudy with Light Snow 10 -12.2 6 -14.4 84 84 NE 10 17 30.53 1034 1 2 0.00 0.03
8:17 am 08:17 Cloudy with Light Snow 10 -12.2 7 -13.9 87 87 NE 10 17 30.53 1034 1 1 0.00 0.03
8:29 am 08:29 Cloudy with Light Snow 10 -12.2 7 -13.9 87 87 NE 10 17 30.53 1034 1 2 0.01 0.25
8:53 am 08:53 Cloudy with Light Snow 10 -12.2 6 -14.4 84 84 NNE 9 15 30.48 1032 1 2 0.01 0.25
9:08 am 09:08 Cloudy with Light Snow 10 -12.2 6 -14.4 84 84 NE 8 13 30.53 1034 1 1 0.00 0.03
9:18 am 09:18 Cloudy with Light Snow 10 -12.2 6 -14.4 84 84 NE 9 15 30.53 1034 1 2 0.01 0.25
9:53 am 09:53 Cloudy with Light Snow 11 -11.7 7 -13.9 84 84 NE 8 13 30.46 1032 1 2 0.02 0.51
10:00 am 10:00 Cloudy with Light Snow 11 -11.7 7 -13.9 84 84 NE 8 13 30.53 1034 1 2 0.00 0.03
10:35 am 10:35 Cloudy with Light Snow 13 -10.6 8 -13.3 81 81 NNE 5 7 30.50 1033 1 2 0.01 0.25
10:53 am 10:53 Cloudy with Light Snow 13 -10.6 8 -13.3 81 81 N 5 7 30.45 1031 1 2 0.01 0.25
11:00 am 11:00 Cloudy with Light Snow 13 -10.6 8 -13.3 81 81 N 5 7 30.48 1032 2 3 0.00 0.03
11:08 am 11:08 Cloudy with Light Snow 13 -10.6 8 -13.3 81 81 NNE 3 6 30.48 1032 1 2 0.00 0.03
11:46 am 11:46 Cloudy with Light Snow 15 -9.4 10 -12.2 80 80 NNE 5 7 30.45 1031 2 3 0.01 0.25
11:53 am 11:53 Cloudy with Light Snow 15 -9.4 10 -12.2 80 80 E 6 9 30.42 1030 3 4 0.01 0.25
12:04 pm 12:04 Cloudy with Light Snow 14 -10 8 -13.3 77 77 ESE 6 9 30.48 1032 4 6 0.00 0.03
12:38 pm 12:38 Cloudy 15 -9.4 9 -12.8 77 77 ESE 3 6 30.42 1030 10 16 0.00 0.03
12:53 pm 12:53 Cloudy 15 -9.4 8 -13.3 74 74 E 6 9 30.38 1029 10 16 0.00 0.03
1:53 pm 13:53 Cloudy 17 -8.3 10 -12.2 74 74 E 6 9 30.35 1028 10 16 0.00 0.00
2:53 pm 14:53 Cloudy 17 -8.3 11 -11.7 77 77 E 5 7 30.32 1027 10 16 0.00 0.00
3:53 pm 15:53 Mostly Cloudy 18 -7.8 11 -11.7 74 74 E 8 13 30.29 1026 10 16 0.00 0.00
4:53 pm 16:53 Cloudy 19 -7.2 12 -11.1 74 74 ESE 6 9 30.28 1025 10 16 0.00 0.00
5:53 pm 17:53 Cloudy 20 -6.7 14 -10 78 78 E 6 9 30.26 1025 10 16 0.00 0.00
6:01 pm 18:01 Cloudy 20 -6.7 14 -10 78 78 E 6 9 30.24 1024 10 16 0.00 0.00
6:53 pm 18:53 Mostly Cloudy 20 -6.7 12 -11.1 71 71 E 5 7 30.24 1024 10 16 0.00 0.00
7:53 pm 19:53 Sunny 18 -7.8 13 -10.6 81 81 NE 8 13 30.22 1023 10 16 0.00 0.00
8:53 pm 20:53 Cloudy 19 -7.2 13 -10.6 77 77 ENE 7 11 30.21 1023 10 16 0.00 0.00
9:53 pm 21:53 Cloudy 18 -7.8 14 -10 84 84 E 5 7 30.22 1023 10 16 0.00 0.00
10:53 pm 22:53 Mostly Cloudy 17 -8.3 13 -10.6 84 84 Calm 30.20 1023 10 16 0.00 0.00
11:53 pm 23:53 Clear 12 -11.1 10 -12.2 92 92 N 5 7 30.19 1022 10 16 0.00 0.00

Powered by AerisWeather